User: anonymous   Login
Location: Newark
(39.0622°N, 106.5590°E)
Time: 17:29:24
(UTC+00:00)
Language:

Altair - Orbit

View from above orbital plane
View from above orbital plane
View from above satellite
View from above satellite

Ground track
Ground track

The orbit data is extracted from the following two-line orbital elements,

1    50U 60009B   20023.84472765 -.00000061  00000-0  21615-3 0  9996
2    50  47.2285 213.1902 0113310 251.7124 107.1309 12.20108988652894
Epoch (UTC): 23 January 2020 20:16:24
Eccentricity: 0.0113310
inclination: 47.2285°
perigee height: 1502 km
apogee height: 1682 km
right ascension of ascending node: 213.1902°
argument of perigee: 251.7124°
revolutions per day: 12.20108988
mean anomaly at epoch: 107.1309°
orbit number at epoch: 65289

The dashed part of the orbit path shows where the satellite is in the earth's shadow,  

DLR